Location: Karlsruhe
(49.0131°N, 8.3874°E)
Time: 14:47:01
(UTC+01:00)

ISS - Pass Details

Date: 12 November 2017
Orbit: 402 x 407 km, 51.6° (Epoch: 19 November)

Event Time Altitude Azimuth Distance (km) Brightness Sun altitude
Exits shadow 05:52:43 42° 296° (WNW) 585 -3.5 -16.2°
Maximum altitude 05:53:41 82° 18° (NNE) 411 -3.9 -16.0°
Drops below altitude 10° 05:56:57 10° 107° (ESE) 1,454 0.3 -15.5°
Sets 05:59:01 0° 108° (ESE) 2,311 1.8 -15.2°
